Time,TemperatureF,DewpointF,PressureIn,WindDirection,WindDirectionDegrees,WindSpeedMPH,WindSpeedGustMPH,Humidity,HourlyPrecipIn,Conditions,Clouds,dailyrainin,SolarRadiationWatts/m^2,SoftwareType,DateUTC
2013-02-01 00:00:00,44.0,38.0,30.19,North,1,3.0,-999.0,80,0.00,,,-99.99,-2.200000,,2013-02-01 08:00:00,
2013-02-01 00:22:00,44.0,38.0,30.19,North,1,3.0,-999.0,80,0.00,,,-99.99,-2.200000,,2013-02-01 08:22:00,
2013-02-01 00:32:00,44.0,38.0,30.19,North,1,3.0,-999.0,80,0.00,,,-99.99,-2.200000,,2013-02-01 08:32:00,
2013-02-01 00:42:00,44.0,38.0,30.19,North,1,3.0,-999.0,80,0.00,,,-99.99,-2.200000,,2013-02-01 08:42:00,
2013-02-01 00:52:00,44.0,38.0,30.19,North,1,3.0,-999.0,80,0.00,,,-99.99,-2.200000,,2013-02-01 08:52:00,
2013-02-01 01:00:00,41.0,36.0,30.19,NNE,16,5.0,-999.0,83,0.00,,,-99.99,-3.100000,,2013-02-01 09:00:00,
2013-02-01 01:22:00,41.0,36.0,30.19,NNE,16,5.0,-999.0,83,0.00,,,-99.99,-3.100000,,2013-02-01 09:22:00,
2013-02-01 01:32:00,41.0,36.0,30.19,NNE,16,5.0,-999.0,83,0.00,,,-99.99,-3.100000,,2013-02-01 09:32:00,
2013-02-01 01:42:00,41.0,36.0,30.19,NNE,16,5.0,-999.0,83,0.00,,,-99.99,-3.100000,,2013-02-01 09:42:00,
2013-02-01 01:52:00,41.0,36.0,30.19,NNE,16,5.0,-999.0,83,0.00,,,-99.99,-3.100000,,2013-02-01 09:52:00,
2013-02-01 02:00:00,43.0,35.0,30.19,North,0,7.0,-999.0,74,0.00,,,-99.99,-2.300000,,2013-02-01 10:00:00,
2013-02-01 02:21:00,43.0,35.0,30.19,North,0,7.0,-999.0,74,0.00,,,-99.99,-2.300000,,2013-02-01 10:21:00,
2013-02-01 02:32:00,43.0,35.0,30.19,North,0,7.0,-999.0,74,0.00,,,-99.99,-2.300000,,2013-02-01 10:32:00,
2013-02-01 02:43:00,43.0,35.0,30.19,North,0,7.0,-999.0,74,0.00,,,-99.99,-2.300000,,2013-02-01 10:43:00,
2013-02-01 02:53:00,43.0,35.0,30.19,North,0,7.0,-999.0,74,0.00,,,-99.99,-2.300000,,2013-02-01 10:53:00,
2013-02-01 03:00:00,42.0,34.0,30.18,NW,313,3.0,-999.0,73,0.00,,,-99.99,-2.800000,,2013-02-01 11:00:00,
2013-02-01 03:22:00,42.0,34.0,30.18,NW,313,3.0,-999.0,73,0.00,,,-99.99,-2.800000,,2013-02-01 11:22:00,
2013-02-01 03:32:00,42.0,34.0,30.18,NW,313,3.0,-999.0,73,0.00,,,-99.99,-2.800000,,2013-02-01 11:32:00,
2013-02-01 03:42:00,42.0,34.0,30.18,NW,313,3.0,-999.0,73,0.00,,,-99.99,-2.800000,,2013-02-01 11:42:00,
2013-02-01 03:53:00,42.0,34.0,30.18,NW,313,3.0,-999.0,73,0.00,,,-99.99,-2.800000,,2013-02-01 11:53:00,
2013-02-01 04:00:00,43.0,32.0,30.17,NNE,18,4.0,-999.0,64,0.00,,,-99.99,-1.600000,,2013-02-01 12:00:00,
2013-02-01 04:23:00,43.0,32.0,30.17,NNE,18,4.0,-999.0,64,0.00,,,-99.99,-1.600000,,2013-02-01 12:23:00,
2013-02-01 04:32:00,43.0,32.0,30.17,NNE,18,4.0,-999.0,64,0.00,,,-99.99,-1.600000,,2013-02-01 12:32:00,
2013-02-01 04:42:00,43.0,32.0,30.17,NNE,18,4.0,-999.0,64,0.00,,,-99.99,-1.600000,,2013-02-01 12:42:00,
2013-02-01 04:52:00,43.0,32.0,30.17,NNE,18,4.0,-999.0,64,0.00,,,-99.99,-1.600000,,2013-02-01 12:52:00,
2013-02-01 06:00:00,37.0,31.0,30.18,North,10,4.0,-999.0,81,0.00,,,-99.99,-3.400000,,2013-02-01 14:00:00,
2013-02-01 06:22:00,37.0,31.0,30.18,North,10,4.0,-999.0,81,0.00,,,-99.99,-3.400000,,2013-02-01 14:22:00,
2013-02-01 06:32:00,37.0,31.0,30.18,North,10,4.0,-999.0,81,0.00,,,-99.99,-3.400000,,2013-02-01 14:32:00,
2013-02-01 06:42:00,37.0,31.0,30.18,North,10,4.0,-999.0,81,0.00,,,-99.99,-3.400000,,2013-02-01 14:42:00,
2013-02-01 06:52:00,37.0,31.0,30.18,North,10,4.0,-999.0,81,0.00,,,-99.99,-3.400000,,2013-02-01 14:52:00,
2013-02-01 07:00:00,41.0,31.0,30.19,North,1,5.0,-999.0,66,0.00,,,-99.99,-1.700000,,2013-02-01 15:00:00,
2013-02-01 07:22:00,41.0,31.0,30.19,North,1,5.0,-999.0,66,0.00,,,-99.99,-1.700000,,2013-02-01 15:22:00,
2013-02-01 07:33:00,41.0,31.0,30.19,North,1,5.0,-999.0,66,0.00,,,-99.99,-1.700000,,2013-02-01 15:33:00,
2013-02-01 07:42:00,41.0,31.0,30.19,North,1,5.0,-999.0,66,0.00,,,-99.99,-1.700000,,2013-02-01 15:42:00,
2013-02-01 07:52:00,41.0,31.0,30.19,North,1,5.0,-999.0,66,0.00,,,-99.99,-1.700000,,2013-02-01 15:52:00,
2013-02-01 08:00:00,42.0,30.0,30.21,North,352,4.0,-999.0,62,0.00,,,-99.99,9.100000,,2013-02-01 16:00:00,
2013-02-01 08:22:00,42.0,30.0,30.21,North,352,4.0,-999.0,62,0.00,,,-99.99,9.100000,,2013-02-01 16:22:00,
2013-02-01 08:33:00,42.0,30.0,30.21,North,352,4.0,-999.0,62,0.00,,,-99.99,9.100000,,2013-02-01 16:33:00,
2013-02-01 08:43:00,42.0,30.0,30.21,North,352,4.0,-999.0,62,0.00,,,-99.99,9.100000,,2013-02-01 16:43:00,
2013-02-01 08:52:00,42.0,30.0,30.21,North,352,4.0,-999.0,62,0.00,,,-99.99,9.100000,,2013-02-01 16:52:00,
2013-02-01 09:00:00,47.0,30.0,30.21,North,7,5.0,-999.0,52,0.00,,,-99.99,73.199997,,2013-02-01 17:00:00,
2013-02-01 09:22:00,47.0,30.0,30.21,North,7,5.0,-999.0,52,0.00,,,-99.99,73.199997,,2013-02-01 17:22:00,
2013-02-01 09:32:00,47.0,30.0,30.21,North,7,5.0,-999.0,52,0.00,,,-99.99,73.199997,,2013-02-01 17:32:00,
2013-02-01 09:42:00,47.0,30.0,30.21,North,7,5.0,-999.0,52,0.00,,,-99.99,73.199997,,2013-02-01 17:42:00,
2013-02-01 09:53:00,47.0,30.0,30.21,North,7,5.0,-999.0,52,0.00,,,-99.99,73.199997,,2013-02-01 17:53:00,
2013-02-01 10:00:00,53.0,32.0,30.22,North,7,5.0,-999.0,44,0.00,,,-99.99,373.899994,,2013-02-01 18:00:00,
2013-02-01 10:23:00,53.0,32.0,30.22,North,7,5.0,-999.0,44,0.00,,,-99.99,373.899994,,2013-02-01 18:23:00,
2013-02-01 10:32:00,53.0,32.0,30.22,North,7,5.0,-999.0,44,0.00,,,-99.99,373.899994,,2013-02-01 18:32:00,
2013-02-01 10:42:00,53.0,32.0,30.22,North,7,5.0,-999.0,44,0.00,,,-99.99,373.899994,,2013-02-01 18:42:00,
2013-02-01 10:53:00,53.0,32.0,30.22,North,7,5.0,-999.0,44,0.00,,,-99.99,373.899994,,2013-02-01 18:53:00,
2013-02-01 11:00:00,60.0,35.0,30.21,NE,43,3.0,-999.0,39,0.00,,,-99.99,505.600006,,2013-02-01 19:00:00,
2013-02-01 11:22:00,60.0,35.0,30.21,NE,43,3.0,-999.0,39,0.00,,,-99.99,505.600006,,2013-02-01 19:22:00,
2013-02-01 11:32:00,60.0,35.0,30.21,NE,43,3.0,-999.0,39,0.00,,,-99.99,505.600006,,2013-02-01 19:32:00,
2013-02-01 11:42:00,60.0,35.0,30.21,NE,43,3.0,-999.0,39,0.00,,,-99.99,505.600006,,2013-02-01 19:42:00,
2013-02-01 11:52:00,60.0,35.0,30.21,NE,43,3.0,-999.0,39,0.00,,,-99.99,505.600006,,2013-02-01 19:52:00,
2013-02-01 12:00:00,66.0,34.0,30.20,WSW,243,2.0,-999.0,31,0.00,,,-99.99,572.599976,,2013-02-01 20:00:00,
2013-02-01 12:22:00,66.0,34.0,30.20,WSW,243,2.0,-999.0,31,0.00,,,-99.99,572.599976,,2013-02-01 20:22:00,
2013-02-01 12:32:00,66.0,34.0,30.20,WSW,243,2.0,-999.0,31,0.00,,,-99.99,572.599976,,2013-02-01 20:32:00,
2013-02-01 12:42:00,66.0,34.0,30.20,WSW,243,2.0,-999.0,31,0.00,,,-99.99,572.599976,,2013-02-01 20:42:00,
2013-02-01 12:52:00,66.0,34.0,30.20,WSW,243,2.0,-999.0,31,0.00,,,-99.99,572.599976,,2013-02-01 20:52:00,
2013-02-01 13:00:00,66.0,35.0,30.18,North,9,1.0,-999.0,32,0.00,,,-99.99,586.299988,,2013-02-01 21:00:00,
2013-02-01 13:22:00,66.0,35.0,30.18,North,9,1.0,-999.0,32,0.00,,,-99.99,586.299988,,2013-02-01 21:22:00,
2013-02-01 13:32:00,66.0,35.0,30.18,North,9,1.0,-999.0,32,0.00,,,-99.99,586.299988,,2013-02-01 21:32:00,
2013-02-01 13:42:00,66.0,35.0,30.18,North,9,1.0,-999.0,32,0.00,,,-99.99,586.299988,,2013-02-01 21:42:00,
2013-02-01 13:52:00,66.0,35.0,30.18,North,9,1.0,-999.0,32,0.00,,,-99.99,586.299988,,2013-02-01 21:52:00,
2013-02-01 14:00:00,67.0,38.0,30.16,West,272,1.0,-999.0,34,0.00,,,-99.99,545.299988,,2013-02-01 22:00:00,
2013-02-01 14:22:00,67.0,38.0,30.16,West,272,1.0,-999.0,34,0.00,,,-99.99,545.299988,,2013-02-01 22:22:00,
2013-02-01 14:32:00,67.0,38.0,30.16,West,272,1.0,-999.0,34,0.00,,,-99.99,545.299988,,2013-02-01 22:32:00,
2013-02-01 14:42:00,67.0,38.0,30.16,West,272,1.0,-999.0,34,0.00,,,-99.99,545.299988,,2013-02-01 22:42:00,
2013-02-01 14:52:00,67.0,38.0,30.16,West,272,1.0,-999.0,34,0.00,,,-99.99,545.299988,,2013-02-01 22:52:00,
2013-02-01 15:00:00,64.0,39.0,30.15,ESE,115,1.0,-999.0,40,0.00,,,-99.99,274.700012,,2013-02-01 23:00:00,
2013-02-01 15:22:00,64.0,39.0,30.15,ESE,115,1.0,-999.0,40,0.00,,,-99.99,274.700012,,2013-02-01 23:22:00,
2013-02-01 15:32:00,64.0,39.0,30.15,ESE,115,1.0,-999.0,40,0.00,,,-99.99,274.700012,,2013-02-01 23:32:00,
2013-02-01 15:42:00,64.0,39.0,30.15,ESE,115,1.0,-999.0,40,0.00,,,-99.99,274.700012,,2013-02-01 23:42:00,
2013-02-01 15:52:00,64.0,39.0,30.15,ESE,115,1.0,-999.0,40,0.00,,,-99.99,274.700012,,2013-02-01 23:52:00,
2013-02-01 16:00:00,62.0,41.0,30.15,SSW,201,1.0,-999.0,46,0.00,,,-99.99,100.800003,,2013-02-02 00:00:00,
2013-02-01 16:22:00,62.0,41.0,30.15,SSW,201,1.0,-999.0,46,0.00,,,-99.99,100.800003,,2013-02-02 00:22:00,
2013-02-01 16:32:00,62.0,41.0,30.15,SSW,201,1.0,-999.0,46,0.00,,,-99.99,100.800003,,2013-02-02 00:32:00,
2013-02-01 16:42:00,62.0,41.0,30.15,SSW,201,1.0,-999.0,46,0.00,,,-99.99,100.800003,,2013-02-02 00:42:00,
2013-02-01 16:52:00,62.0,41.0,30.15,SSW,201,1.0,-999.0,46,0.00,,,-99.99,100.800003,,2013-02-02 00:52:00,
2013-02-01 17:00:00,57.0,42.0,30.15,SSW,207,0.0,-999.0,56,0.00,,,-99.99,24.200001,,2013-02-02 01:00:00,
2013-02-01 17:22:00,57.0,42.0,30.15,SSW,207,0.0,-999.0,56,0.00,,,-99.99,24.200001,,2013-02-02 01:22:00,
2013-02-01 17:32:00,57.0,42.0,30.15,SSW,207,0.0,-999.0,56,0.00,,,-99.99,24.200001,,2013-02-02 01:32:00,
2013-02-01 17:42:00,57.0,42.0,30.15,SSW,207,0.0,-999.0,56,0.00,,,-99.99,24.200001,,2013-02-02 01:42:00,
2013-02-01 17:52:00,57.0,42.0,30.15,SSW,207,0.0,-999.0,56,0.00,,,-99.99,24.200001,,2013-02-02 01:52:00,
2013-02-01 18:00:00,48.0,41.0,30.15,NNW,346,1.0,-999.0,76,0.00,,,-99.99,0.600000,,2013-02-02 02:00:00,
2013-02-01 18:22:00,48.0,41.0,30.15,NNW,346,1.0,-999.0,76,0.00,,,-99.99,0.600000,,2013-02-02 02:22:00,
2013-02-01 18:32:00,48.0,41.0,30.15,NNW,346,1.0,-999.0,76,0.00,,,-99.99,0.600000,,2013-02-02 02:32:00,
2013-02-01 18:42:00,48.0,41.0,30.15,NNW,346,1.0,-999.0,76,0.00,,,-99.99,0.600000,,2013-02-02 02:42:00,
2013-02-01 18:52:00,48.0,41.0,30.15,NNW,346,1.0,-999.0,76,0.00,,,-99.99,0.600000,,2013-02-02 02:52:00,
2013-02-01 19:00:00,44.0,37.0,30.17,SW,236,0.0,-999.0,77,0.00,,,-99.99,-1.500000,,2013-02-02 03:00:00,
2013-02-01 19:22:00,44.0,37.0,30.17,SW,236,0.0,-999.0,77,0.00,,,-99.99,-1.500000,,2013-02-02 03:22:00,
2013-02-01 19:32:00,44.0,37.0,30.17,SW,236,0.0,-999.0,77,0.00,,,-99.99,-1.500000,,2013-02-02 03:32:00,
2013-02-01 19:42:00,44.0,37.0,30.17,SW,236,0.0,-999.0,77,0.00,,,-99.99,-1.500000,,2013-02-02 03:42:00,
2013-02-01 19:52:00,44.0,37.0,30.17,SW,236,0.0,-999.0,77,0.00,,,-99.99,-1.500000,,2013-02-02 03:52:00,
2013-02-01 20:00:00,42.0,38.0,30.19,NNE,15,1.0,-999.0,85,0.00,,,-99.99,-1.100000,,2013-02-02 04:00:00,
2013-02-01 20:22:00,42.0,38.0,30.19,NNE,15,1.0,-999.0,85,0.00,,,-99.99,-1.100000,,2013-02-02 04:22:00,
2013-02-01 20:32:00,42.0,38.0,30.19,NNE,15,1.0,-999.0,85,0.00,,,-99.99,-1.100000,,2013-02-02 04:32:00,
2013-02-01 20:42:00,42.0,38.0,30.19,NNE,15,1.0,-999.0,85,0.00,,,-99.99,-1.100000,,2013-02-02 04:42:00,
2013-02-01 20:52:00,42.0,38.0,30.19,NNE,15,1.0,-999.0,85,0.00,,,-99.99,-1.100000,,2013-02-02 04:52:00,
2013-02-01 21:00:00,42.0,40.0,30.21,North,10,4.0,-999.0,90,0.00,,,-99.99,-1.000000,,2013-02-02 05:00:00,
2013-02-01 21:22:00,42.0,40.0,30.21,North,10,4.0,-999.0,90,0.00,,,-99.99,-1.000000,,2013-02-02 05:22:00,
2013-02-01 21:33:00,42.0,40.0,30.21,North,10,4.0,-999.0,90,0.00,,,-99.99,-1.000000,,2013-02-02 05:33:00,
2013-02-01 21:42:00,42.0,40.0,30.21,North,10,4.0,-999.0,90,0.00,,,-99.99,-1.000000,,2013-02-02 05:42:00,
2013-02-01 21:52:00,42.0,40.0,30.21,North,10,4.0,-999.0,90,0.00,,,-99.99,-1.000000,,2013-02-02 05:52:00,
2013-02-01 22:00:00,45.0,39.0,30.23,North,352,1.0,-999.0,79,0.00,,,-99.99,-1.400000,,2013-02-02 06:00:00,
2013-02-01 22:22:00,45.0,39.0,30.23,North,352,1.0,-999.0,79,0.00,,,-99.99,-1.400000,,2013-02-02 06:22:00,
2013-02-01 22:32:00,45.0,39.0,30.23,North,352,1.0,-999.0,79,0.00,,,-99.99,-1.400000,,2013-02-02 06:32:00,
2013-02-01 22:42:00,45.0,39.0,30.23,North,352,1.0,-999.0,79,0.00,,,-99.99,-1.400000,,2013-02-02 06:42:00,
2013-02-01 22:52:00,45.0,39.0,30.23,North,352,1.0,-999.0,79,0.00,,,-99.99,-1.400000,,2013-02-02 06:52:00,